RH
55 54 65 84 88 83 85 91 81 67 63 49 40 39 31 28 28 29 32 33 33 34 33 35 45 51 53 55 52 55 57 54 60 63 71 86 81 83 88 86 84 85 91 87 88 94 91 88 85 84 82 83 82 77 77 75 73 71 68 66 64 63 61 59 58 55 54 56 58 58 59 64 67 64 59 56 54 55 57 52 47 50 57 64 69 67 63 63 64 66 69 69 67 68 69 70 73
54 63 79 85 79 78 76 80 72 54 60 58 42 32 28 29 28 31 31 32 34 35 36 39 49 51 50 53 48 49 58 62 70 76 85 90 84 89 87 82 87 89 88 83 84 89 89 87 80 80 80 78 79 77 76 75 75 73 70 68 64 64 63 60 60 59 59 58 58 55 57 64 65 62 58 54 50 52 54 50 48 51 58 61 63 63 60 60 62 66 69 73 72 69 69 69 71
64 74 82 76 70 76 69 69 61 36 47 61 45 31 28 29 30 30 28 31 35 35 38 36 40 45 46 50 49 51 59 64 70 79 86 89 88 91 88 85 91 88 86 85 83 84 87 88 81 77 75 75 78 77 75 73 74 72 71 68 66 68 68 66 65 65 65 62 60 55 59 64 63 59 55 54 50 51 50 49 52 53 57 57 58 58 59 60 60 63 66 73 76 70 68 67 71
70 73 71 68 67 71 68 63 48 26 30 43 39 37 32 28 28 26 27 31 34 35 37 37 39 45 45 45 48 52 57 63 67 73 78 83 83 88 90 84 84 84 86 90 85 82 83 84 79 74 73 75 78 76 72 71 71 70 71 72 72 71 70 69 67 67 65 65 63 60 63 63 62 58 56 55 49 47 47 48 51 51 54 57 59 60 61 62 62 63 62 69 76 74 71 69 72
66 65 63 64 64 58 55 47 28 21 26 30 33 34 28 26 28 27 29 30 32 33 34 38 40 44 47 46 48 53 58 61 66 70 75 81 81 84 85 80 82 81 85 94 90 84 79 79 79 75 75 76 74 73 71 71 71 71 71 73 72 69 68 69 70 69 65 65 64 63 64 61 57 57 58 52 44 45 48 49 50 51 53 57 62 61 60 60 61 62 60 65 70 73 71 70 71
61 56 59 61 61 55 51 34 15 18 20 23 29 29 25 25 27 28 30 31 31 30 31 35 37 43 52 56 55 57 59 59 66 71 76 83 87 85 80 82 88 86 90 95 89 84 78 76 79 77 75 74 72 72 71 71 72 72 71 69 68 66 68 70 72 71 66 65 64 61 59 57 53 55 57 47 43 48 49 49 52 54 54 60 63 59 58 56 60 64 62 62 65 71 70 68 70
56 51 60 60 54 55 52 26 12 19 16 18 24 25 25 25 27 28 30 30 30 30 31 32 34 40 48 55 60 65 64 62 68 72 77 83 88 87 84 87 89 89 92 89 84 81 76 72 74 74 73 74 75 76 74 73 72 73 71 69 68 68 69 70 72 71 70 68 65 60 55 55 53 55 55 45 45 49 50 52 53 56 59 63 60 58 60 55 56 62 62 63 66 70 70 70 71
53 55 60 60 52 46 36 16 13 19 16 18 20 23 25 24 27 27 28 29 29 30 29 30 32 37 43 48 59 71 73 70 73 76 78 82 87 88 87 84 82 87 87 84 84 79 73 70 71 73 74 75 77 77 75 74 71 70 70 70 72 72 70 69 71 72 70 69 66 63 59 57 55 55 51 45 47 48 51 54 54 57 61 61 61 65 63 57 58 60 60 63 66 69 71 71 71
51 57 57 59 50 29 17 14 16 17 18 20 19 24 25 26 27 27 28 28 29 28 28 32 32 38 44 50 60 73 78 76 76 78 78 80 83 83 85 83 79 84 84 83 84 79 73 68 69 72 72 73 73 73 72 71 70 69 69 70 72 75 74 69 71 71 69 68 66 63 61 59 57 55 49 44 46 48 51 54 54 57 62 60 64 68 59 56 59 58 57 58 61 67 68 66 70
56 56 47 46 32 15 15 15 16 17 19 18 20 24 25 27 27 27 26 25 28 27 29 32 34 44 47 51 59 68 78 79 76 77 76 77 78 78 83 84 81 84 84 84 83 78 71 65 69 72 69 69 69 69 70 69 68 69 69 69 70 72 72 69 70 70 68 67 65 61 56 53 51 50 47 44 47 50 52 54 55 59 64 62 66 65 56 58 58 54 53 52 56 64 62 60 69
74 61 36 33 20 14 18 15 16 16 17 18 20 23 24 27 26 27 25 25 27 25 31 32 37 50 52 57 64 68 76 75 73 73 74 76 78 78 81 84 81 82 83 86 85 74 66 66 69 70 70 67 67 68 68 69 69 70 71 70 69 68 67 68 71 69 68 67 64 57 49 48 44 43 45 44 46 49 52 55 56 61 65 64 68 65 60 64 61 54 51 54 56 59 60 59 66
81 62 36 29 19 17 17 14 17 15 16 18 19 22 23 24 25 26 25 25 25 24 31 34 37 47 53 61 64 67 70 69 69 71 75 77 77 77 80 81 79 80 82 86 87 74 66 71 68 67 71 69 68 69 69 71 72 72 71 69 67 66 67 70 70 67 66 64 60 55 50 49 44 45 48 46 44 48 55 56 54 60 65 66 69 66 64 66 63 55 53 59 54 52 61 62 64
59 47 37 25 16 17 16 15 17 16 17 16 17 21 21 21 23 25 25 25 23 24 30 34 36 42 52 60 61 63 65 65 70 73 76 76 76 78 78 77 77 82 85 87 88 78 72 74 70 68 69 69 70 71 72 73 73 72 70 70 67 66 69 70 67 64 62 59 57 55 52 51 50 52 52 51 51 55 58 54 53 59 65 67 68 67 67 68 67 61 56 59 52 46 54 59 64
47 41 32 21 18 16 15 17 16 16 15 14 17 19 20 20 21 23 26 24 22 24 30 34 36 44 54 58 58 58 61 67 72 74 75 76 77 78 77 76 77 82 87 89 84 76 78 79 75 70 67 68 70 69 69 71 70 70 69 69 68 69 70 67 64 62 59 55 54 54 54 53 55 57 57 60 61 59 57 54 58 63 66 67 67 68 68 70 71 66 58 57 53 44 47 56 63
52 49 32 17 20 18 16 17 14 15 14 15 16 18 19 19 21 23 23 24 23 26 30 33 36 43 48 49 51 55 62 69 72 74 75 76 76 78 80 78 78 81 85 87 79 71 77 81 77 71 69 72 73 71 68 66 66 67 68 68 69 72 69 64 65 63 59 55 54 56 58 59 60 61 62 65 62 56 54 57 65 66 67 67 67 69 69 71 69 64 61 56 53 47 50 59 62
39 49 48 25 19 19 17 17 15 16 15 15 17 19 18 18 22 21 22 24 25 27 29 31 36 39 40 43 48 55 64 69 72 74 77 77 76 79 81 82 83 83 85 87 83 77 76 75 71 69 70 73 73 72 72 66 64 65 66 69 71 68 65 64 66 64 60 60 59 60 61 62 65 66 65 66 62 58 58 63 66 66 66 67 70 72 70 69 65 60 59 54 54 53 54 59 60
30 41 50 30 20 19 16 18 17 17 16 16 17 19 17 18 22 23 25 25 26 27 27 31 36 36 36 41 48 57 65 69 73 75 78 79 77 76 78 84 86 86 88 89 87 84 82 76 71 71 69 70 72 70 72 72 64 62 65 67 67 64 63 66 67 63 62 63 62 61 63 64 67 69 69 71 69 66 67 68 67 66 68 71 73 73 69 67 63 56 52 51 52 53 54 60 63
31 36 41 32 24 18 14 17 16 15 17 17 17 18 16 18 21 24 25 24 25 26 27 31 33 35 37 42 51 59 65 70 74 76 79 79 74 72 74 81 83 84 86 87 88 83 81 78 76 79 70 66 73 71 72 76 65 61 68 67 64 62 63 66 67 65 66 67 64 62 67 70 68 68 71 72 73 73 72 68 67 69 71 74 74 72 67 62 61 54 48 49 47 51 58 64 70
26 30 38 36 24 14 14 15 14 16 17 17 17 17 16 17 19 21 21 22 23 23 27 30 32 38 42 46 53 59 64 69 73 74 76 74 70 69 72 76 78 81 82 85 86 74 71 78 79 78 72 65 72 73 71 74 66 64 72 70 67 64 65 66 66 65 66 68 65 64 70 73 69 66 69 69 68 69 67 64 65 69 71 73 73 72 66 58 57 55 52 51 48 55 64 69 76
20 22 31 30 18 14 15 14 14 16 17 18 17 18 17 17 19 20 19 20 21 22 25 27 32 40 43 47 54 58 62 66 69 68 69 69 66 66 70 73 74 76 77 78 80 74 70 77 78 72 71 69 70 72 68 68 68 70 75 76 73 68 67 65 64 65 65 68 64 64 67 65 65 64 64 65 65 66 67 66 66 68 70 68 67 68 67 61 59 59 59 59 58 63 70 76 80
17 24 35 25 13 15 15 14 15 14 17 18 18 19 17 17 19 18 18 19 20 20 24 25 32 39 42 48 53 55 58 62 65 62 63 64 62 63 67 70 71 72 72 70 75 81 72 70 77 68 67 67 65 69 70 70 71 74 77 80 82 79 77 71 71 71 65 64 62 66 69 62 64 68 69 66 63 68 70 71 72 71 71 67 66 70 71 70 70 71 70 69 71 74 78 83 81
14 22 31 20 12 16 13 13 15 14 17 18 19 19 17 18 18 18 17 19 18 18 22 24 31 39 42 48 52 53 55 59 60 60 62 62 58 61 66 68 69 69 70 68 70 81 77 76 78 63 62 66 62 69 77 74 70 77 78 76 83 85 84 80 82 84 75 66 64 77 82 74 76 78 79 74 68 75 77 76 79 78 79 77 76 79 79 81 80 79 80 81 82 81 83 86 82
14 17 19 16 15 15 12 13 14 14 16 17 19 19 19 19 17 18 17 17 16 16 21 23 31 40 42 47 51 51 54 58 59 61 64 61 58 61 65 67 68 68 70 69 70 77 79 83 82 70 70 71 69 73 73 70 69 80 84 79 82 86 88 86 87 89 85 74 66 80 88 82 84 81 80 79 79 82 79 80 82 81 82 81 82 83 82 84 83 82 85 86 86 84 84 88 88
14 16 15 15 15 14 13 13 12 14 15 17 19 19 20 19 18 18 16 17 17 17 20 23 32 40 42 46 49 49 52 55 57 62 65 62 60 62 65 66 68 69 71 71 71 75 75 79 79 80 81 73 77 77 70 73 75 82 87 80 79 85 88 86 85 85 88 82 65 69 81 84 83 79 79 81 83 82 81 82 78 76 76 80 85 83 81 83 84 86 87 88 89 88 87 89 91
12 15 14 14 14 13 12 11 12 14 15 17 19 18 20 19 19 18 15 18 19 19 21 24 31 39 42 45 47 48 50 52 52 58 64 64 62 63 65 67 69 72 74 73 72 74 76 78 74 76 80 72 71 72 72 82 82 83 87 83 80 82 84 83 84 84 86 89 76 63 67 78 83 79 79 80 80 81 85 81 71 72 73 75 80 78 81 84 84 89 89 90 90 85 87 88 87
11 14 14 13 13 12 10 9 11 13 15 17 17 16 19 20 19 17 16 19 20 20 22 25 31 37 40 43 45 48 50 49 49 54 59 63 63 64 66 68 70 72 76 75 73 75 76 79 76 71 72 68 68 71 76 85 85 82 82 82 78 72 76 81 85 86 84 87 88 76 61 67 82 83 77 76 76 75 79 77 69 74 71 67 71 72 83 87 83 89 90 88 86 82 84 83 79
10 12 13 13 12 11 9 10 10 13 15 16 16 16 18 19 19 18 18 20 20 20 24 29 34 36 38 41 44 49 50 48 49 52 56 60 62 64 68 69 70 71 74 76 75 76 75 77 79 73 68 64 69 79 82 82 83 80 76 78 76 61 60 70 78 85 85 82 86 88 72 61 70 74 72 74 74 70 75 77 72 76 72 64 69 73 83 90 87 89 85 75 75 77 77 78 79
9 11 12 12 11 10 10 10 11 13 14 15 15 15 17 18 18 18 20 22 21 22 26 31 35 37 38 40 45 50 51 48 49 52 54 58 59 62 67 69 71 71 73 77 76 77 76 75 78 78 74 65 62 77 84 75 72 76 71 75 80 65 53 62 76 83 81 76 79 87 78 63 60 63 66 69 66 68 78 81 73 75 73 65 72 79 80 84 83 84 80 69 68 69 72 79 82
8 9 10 11 10 11 11 10 12 13 14 15 15 17 19 19 17 17 21 23 22 22 27 32 35 37 39 41 46 50 51 50 50 52 54 57 58 61 66 69 73 73 72 77 77 77 78 77 78 79 80 69 54 67 80 69 66 73 70 74 84 73 62 68 79 85 81 75 75 76 71 68 63 58 62 63 57 65 78 79 69 75 82 69 70 79 73 72 74 74 79 79 76 72 75 82 80
8 8 9 10 11 12 11 10 12 12 14 15 16 21 22 19 17 18 22 24 22 22 25 30 32 34 39 42 46 50 51 51 51 52 54 57 59 60 64 68 72 73 71 75 77 78 78 80 82 82 83 75 58 62 74 72 72 77 76 79 83 75 75 78 79 86 86 80 79 72 66 68 64 61 66 62 54 62 76 76 67 75 84 66 63 74 68 69 72 71 80 87 81 77 79 80 78
8 8 8 11 13 12 10 10 12 12 16 16 16 22 21 17 17 18 21 23 22 22 23 26 30 33 37 41 45 49 50 51 51 53 55 57 58 58 61 65 69 71 71 73 77 80 81 82 84 85 85 78 66 61 64 71 76 76 79 83 81 77 79 82 82 85 85 85 86 81 72 66 66 70 71 65 59 64 74 76 74 77 72 58 67 75 68 73 75 73 83 85 81 81 80 77 76
8 9 10 10 12 13 9 10 12 13 16 16 16 21 18 14 15 19 21 22 22 22 22 24 27 30 35 40 43 47 49 51 51 51 53 55 57 58 60 63 66 69 72 72 75 81 84 85 86 87 85 78 72 65 58 64 70 70 77 82 81 83 81 81 85 86 85 88 92 93 84 70 71 75 69 65 62 62 68 70 74 71 58 60 77 77 76 85 83 79 80 79 80 79 77 76 75
8 10 11 10 11 13 11 10 11 12 15 16 17 20 21 16 14 19 21 21 21 22 22 22 25 28 32 38 40 44 48 51 52 52 53 55 57 59 59 62 64 67 71 71 73 80 84 85 86 87 86 78 73 71 63 59 60 60 68 76 81 84 82 82 85 84 82 88 92 92 86 73 72 72 63 58 53 55 66 71 75 68 61 72 79 75 82 87 82 82 81 80 80 73 74 76 71
10 10 11 10 11 12 13 12 10 11 14 17 16 19 25 20 15 20 22 21 21 21 22 22 24 26 30 36 37 41 48 51 53 53 55 56 58 60 60 62 64 65 68 70 73 77 81 85 84 80 84 84 75 70 68 62 57 56 60 68 74 77 77 78 84 83 76 83 87 78 75 73 69 64 54 49 49 51 61 71 72 62 64 74 74 78 84 81 82 85 84 81 71 63 70 71 67
11 10 10 11 11 11 11 12 11 11 14 17 17 18 21 18 17 21 22 21 21 20 22 22 23 25 29 35 35 38 45 51 53 53 56 58 59 61 61 62 65 66 68 70 73 77 81 86 83 71 73 85 82 71 69 65 62 63 63 66 69 66 64 66 76 77 68 74 81 69 65 70 68 62 52 48 55 58 61 69 69 63 67 70 71 79 82 82 87 87 84 74 55 54 68 70 70
9 9 10 12 11 9 9 10 10 11 14 15 16 17 17 18 20 20 20 22 21 20 21 22 22 24 28 33 34 35 42 48 52 53 54 58 60 61 63 64 66 67 69 72 76 80 83 86 85 72 60 69 84 82 73 70 73 73 68 72 77 67 62 70 70 65 63 70 75 65 59 65 65 59 55 55 64 69 67 68 72 75 75 72 75 82 85 85 82 81 77 61 50 61 75 78 78
8 8 10 10 10 10 8 9 10 9 13 14 15 17 16 18 20 18 19 21 21 20 21 22 22 23 27 31 33 34 39 44 48 52 53 57 60 61 64 66 67 68 71 75 79 82 85 85 84 74 55 52 75 88 80 73 74 73 70 77 85 74 72 83 74 63 68 74 75 66 56 59 60 57 57 59 64 64 61 65 73 78 75 74 81 85 82 80 79 82 76 62 66 76 74 74 78
8 8 9 9 9 10 7 8 10 9 12 14 14 16 16 17 17 17 19 20 21 20 20 21 21 23 25 29 32 33 37 40 44 49 52 56 58 60 64 66 67 69 71 76 80 83 87 87 82 72 57 50 63 78 77 72 71 73 76 80 84 79 76 82 77 70 73 75 73 64 55 57 57 57 59 57 58 58 60 69 75 77 78 77 80 80 74 76 83 85 77 71 78 80 71 69 73
8 9 9 10 9 9 8 7 8 10 12 14 15 15 15 15 17 19 20 21 23 21 20 21 21 23 25 28 31 33 35 37 40 46 50 54 56 60 64 66 67 68 71 75 79 83 85 84 76 66 63 60 59 64 67 71 74 77 80 79 80 80 73 73 77 78 80 80 77 68 62 61 56 58 63 61 63 65 67 75 76 77 81 80 79 79 76 80 84 79 76 79 80 78 75 74 75
8 9 9 11 9 9 9 8 9 11 12 14 16 16 15 15 18 21 21 21 23 22 21 20 21 22 24 27 31 32 35 37 38 42 48 52 54 58 63 65 65 66 70 73 77 83 84 80 70 62 66 67 66 67 63 66 76 82 84 80 79 80 75 76 81 79 78 78 79 75 65 59 56 60 66 66 69 72 71 74 76 78 80 79 77 75 75 79 80 80 79 78 80 79 73 74 79
7 8 9 10 10 9 9 10 11 12 13 14 16 20 20 17 19 20 19 20 21 22 21 20 21 22 23 26 29 32 35 36 37 40 47 51 52 56 60 62 62 64 68 70 76 82 84 82 68 57 59 61 69 73 64 64 76 84 83 79 80 82 80 81 79 76 77 75 79 81 67 60 63 64 67 71 75 76 72 72 74 78 78 72 72 75 76 74 72 78 80 75 76 76 70 73 77
8 8 8 8 9 8 8 9 11 14 18 16 16 24 27 20 19 19 17 18 20 23 23 22 22 22 23 24 26 31 34 36 38 40 45 49 50 52 56 59 60 61 64 68 75 78 83 85 70 53 51 56 68 71 63 64 69 73 75 75 78 81 80 79 72 72 77 73 77 83 73 68 69 67 71 74 74 69 64 67 70 75 80 73 74 79 74 68 69 76 82 79 76 73 73 75 70
8 8 7 7 8 8 8 9 11 16 19 16 15 25 29 22 19 19 16 18 20 23 23 22 24 25 25 25 26 29 31 34 38 40 44 47 48 49 52 57 59 59 62 67 71 74 80 85 76 63 54 57 68 71 70 67 62 66 70 68 71 77 81 81 72 70 74 71 74 79 75 72 70 72 78 73 68 65 60 64 66 70 81 80 80 82 71 68 77 82 83 79 75 73 76 75 68
8 6 6 7 7 7 8 8 11 14 15 16 14 20 28 26 20 17 15 18 21 22 21 21 25 28 29 29 29 29 30 33 36 41 44 43 46 49 50 56 60 59 60 65 67 70 75 79 82 78 65 60 68 75 76 67 60 66 68 65 72 78 78 77 74 72 72 69 71 78 81 79 73 74 80 73 65 67 65 64 64 72 83 82 81 82 75 73 78 80 78 73 69 69 74 75 74
7 5 5 6 7 7 8 8 11 11 14 19 17 17 27 29 21 15 14 15 19 21 21 22 24 26 28 31 32 31 32 33 33 40 44 43 46 50 51 56 62 61 60 63 65 67 73 78 84 84 73 68 74 76 72 65 63 66 69 71 75 78 77 74 74 72 72 73 73 79 81 80 76 69 65 63 63 72 75 68 65 74 83 81 79 77 74 75 78 75 69 68 72 73 76 77 76
6 6 6 6 6 7 8 9 10 11 16 21 17 16 24 26 20 17 17 16 17 17 19 22 22 23 25 29 33 35 37 36 33 36 43 46 47 48 50 54 60 61 60 62 65 66 73 79 83 84 79 75 77 75 69 69 70 66 70 77 75 76 77 74 73 70 73 75 70 73 71 66 72 71 60 55 58 69 77 71 68 73 76 78 78 74 73 75 76 77 72 71 77 78 77 78 77
5 6 7 7 7 7 8 9 10 14 19 19 16 14 18 23 21 18 18 17 15 15 17 20 20 20 22 27 34 37 40 40 35 34 41 47 47 45 46 49 55 59 60 61 64 65 72 78 82 85 81 73 71 76 77 78 76 61 58 70 72 72 72 72 75 72 76 74 64 72 71 57 63 75 73 66 58 62 72 73 70 70 73 77 79 76 74 70 68 75 78 76 78 80 78 77 76
5 6 7 8 9 10 12 12 12 17 19 16 14 13 16 22 21 16 15 14 13 15 17 18 17 17 20 27 34 36 36 36 35 35 40 47 47 43 43 46 51 57 60 60 60 64 71 75 79 84 83 73 71 81 83 81 78 62 52 60 65 64 67 75 78 74 79 75 67 76 73 57 59 72 78 76 67 68 77 80 76 73 76 78 77 75 72 70 68 72 78 80 81 84 81 77 76
5 6 8 11 13 15 18 17 15 17 17 13 11 12 16 19 17 14 13 13 12 13 15 15 14 14 18 24 27 27 27 29 33 36 39 45 48 45 43 45 50 57 60 59 58 63 68 70 75 81 83 77 72 77 80 78 74 62 53 55 57 59 66 76 78 76 79 74 70 77 71 61 64 70 76 77 71 70 74 79 79 77 79 79 78 77 75 76 76 75 80 81 80 81 79 78 79
6 6 9 12 13 18 22 20 18 18 15 11 9 12 17 16 14 12 12 12 10 11 12 13 13 11 13 20 25 25 24 26 32 36 38 42 46 47 46 46 50 56 59 59 59 61 64 67 72 78 82 79 71 74 81 81 73 62 56 54 53 57 62 70 78 82 83 78 75 78 77 75 74 74 79 81 76 73 71 74 78 78 80 82 82 79 79 79 74 74 81 79 74 77 77 78 77
5 5 7 10 11 16 20 17 18 18 15 12 11 14 16 15 14 12 10 10 9 10 11 11 11 10 9 13 19 24 24 24 30 35 36 40 44 48 48 49 51 54 57 58 59 61 61 64 70 75 82 81 75 78 83 84 82 76 67 56 50 54 56 63 77 82 83 84 82 81 81 82 82 81 84 83 79 77 74 73 76 79 80 81 79 74 77 81 73 70 78 79 75 75 76 77 77
5 4 6 9 9 12 15 14 14 15 16 15 13 14 13 12 11 9 8 10 9 9 9 8 9 9 9 9 11 19 24 22 26 33 35 37 42 46 49 50 51 54 57 58 59 60 59 64 70 74 79 81 80 80 81 83 86 85 78 62 50 52 53 60 72 75 79 84 84 83 82 82 84 83 82 82 80 78 77 76 76 80 82 82 80 76 78 82 79 75 76 79 79 74 76 81 80
5 6 7 8 8 9 12 14 13 14 17 17 13 13 12 10 10 8 8 9 8 9 8 7 8 8 9 8 9 19 26 24 25 32 35 37 40 44 48 50 51 53 56 57 58 59 59 63 70 72 75 80 83 81 78 79 81 83 83 69 54 50 49 55 66 70 77 84 84 82 80 80 82 81 83 84 82 79 79 78 78 82 84 84 84 82 80 80 81 81 79 79 80 76 77 82 82
5 7 7 6 7 8 11 14 15 16 18 16 13 13 12 13 12 10 10 9 9 10 9 8 8 7 8 8 8 14 21 24 25 30 35 38 39 42 46 47 49 50 54 56 57 59 61 63 67 71 74 77 82 83 78 77 77 78 83 78 63 49 45 53 64 71 78 81 83 81 78 79 80 81 83 81 80 83 81 78 81 85 85 83 83 84 83 82 81 82 80 78 78 77 77 79 79
4 5 5 6 9 11 12 15 16 17 19 17 14 12 12 12 11 10 12 10 9 10 10 8 8 8 7 9 10 12 15 20 25 30 36 39 39 41 44 44 45 47 51 55 58 60 63 65 64 67 73 76 78 79 77 78 76 75 81 83 69 51 47 53 60 73 81 79 80 81 78 80 78 73 68 61 61 65 65 70 78 83 83 82 82 82 81 83 83 82 82 79 77 76 74 76 76
3 4 4 5 8 10 11 13 13 15 18 17 15 14 13 11 9 10 12 11 9 9 10 9 8 8 7 8 9 10 15 22 26 30 35 40 40 40 41 42 42 44 49 54 58 57 59 63 64 63 70 77 78 75 75 78 77 76 79 83 74 57 50 53 59 75 82 78 79 80 79 81 72 61 57 52 44 39 39 51 64 73 77 81 83 76 69 77 83 81 82 81 79 78 75 75 76
4 4 5 6 7 8 10 10 9 12 16 17 17 16 14 9 8 9 11 11 9 8 9 9 8 7 7 7 7 9 16 23 27 30 34 39 40 38 38 40 39 43 50 53 52 50 52 58 61 60 65 74 76 72 73 76 78 78 78 79 79 65 52 55 65 75 79 79 80 77 77 78 65 51 50 45 33 25 23 29 37 46 53 65 74 60 48 63 78 80 83 83 77 74 74 76 79
4 4 4 6 7 8 10 11 10 10 12 14 16 16 13 8 7 8 9 9 8 7 8 8 8 7 6 7 7 9 16 23 26 29 32 35 38 36 35 37 38 40 46 48 45 45 47 52 56 56 58 65 67 65 69 74 77 79 76 75 80 72 58 58 67 73 76 76 72 66 65 65 54 42 36 28 22 21 23 22 21 23 27 42 56 47 34 44 60 72 82 86 83 80 78 77 79
Wind_Speed
4 2 2 5 8 7 8 9 3 3 3 2 4 5 7 9 8 9 9 7 6 7 9 10 14 11 7 8 9 10 6 3 4 2 6 11 18 15 11 13 11 12 13 14 17 18 20 21 22 21 23 24 24 24 25 24 23 22 21 22 21 20 19 19 18 17 17 15 14 14 14 13 12 12 12 12 12 12 12 11 11 11 11 12 12 12 12 11 11 11 11 11 12 13 14 14 13
4 1 4 4 7 8 6 8 2 2 4 5 2 4 9 8 7 9 9 8 8 10 11 12 17 16 14 12 9 10 8 9 12 12 15 18 19 14 12 14 14 15 15 16 17 18 20 21 22 21 22 23 23 22 23 22 21 20 20 20 20 20 19 18 16 16 15 14 13 13 12 11 11 11 11 11 11 11 10 10 10 10 10 11 11 12 11 11 11 10 10 10 11 12 13 13 12
4 4 7 6 8 9 6 5 4 1 7 3 1 6 7 8 10 11 11 12 13 13 12 13 15 14 14 11 8 10 10 13 17 18 19 19 18 15 14 16 17 17 17 17 17 19 20 21 22 22 22 22 22 21 21 20 19 19 19 18 18 18 18 17 16 15 15 14 13 12 12 10 11 11 11 10 10 8 8 8 8 9 10 11 12 12 12 12 12 11 10 10 11 12 12 12 12
9 7 8 8 7 6 4 4 5 1 6 3 5 9 7 9 12 12 14 14 13 12 11 11 9 10 11 11 12 13 13 15 16 17 18 17 18 17 16 17 18 18 19 17 16 19 21 22 22 21 21 21 22 21 20 19 18 18 17 16 16 16 17 18 17 16 15 14 14 13 12 10 11 10 10 9 8 6 7 7 8 10 10 11 12 11 11 11 11 10 9 9 10 10 10 11 12
10 8 7 7 6 3 4 5 1 4 5 4 5 9 10 11 13 12 13 13 11 10 10 10 8 10 12 11 12 12 13 16 15 16 17 17 18 19 17 18 18 18 19 17 15 18 21 23 22 21 21 21 21 20 19 19 18 18 17 16 16 16 16 17 16 16 15 15 14 13 12 11 11 10 9 8 6 5 7 8 9 10 10 10 10 10 10 9 9 8 8 9 10 10 9 10 10
10 9 7 8 9 6 8 5 3 5 6 6 5 7 11 11 12 12 13 11 10 9 8 10 10 12 13 14 15 13 12 14 15 16 18 21 20 20 19 18 18 18 19 18 17 17 19 22 23 23 23 22 20 19 19 18 17 16 16 16 16 16 16 15 15 14 14 14 13 12 11 11 10 9 8 6 5 6 7 8 9 9 8 9 9 9 9 8 7 7 8 8 9 10 10 9 9
9 7 7 7 9 6 7 2 6 5 7 8 7 7 9 11 11 12 12 10 10 8 7 10 13 12 12 13 15 14 11 13 15 17 20 23 22 21 20 19 18 19 18 18 18 18 19 21 23 24 23 22 21 19 18 18 17 16 16 16 17 16 15 15 14 13 13 12 12 11 11 10 9 8 6 5 5 6 7 8 8 7 7 8 8 8 7 7 7 6 6 7 8 8 9 9 8
6 4 5 4 5 7 5 2 7 6 8 9 9 8 8 10 11 11 10 8 8 8 8 10 11 11 11 13 13 12 12 14 16 19 22 23 22 21 21 19 19 20 18 17 18 19 20 21 22 22 22 22 21 20 19 18 17 17 16 16 15 15 15 15 14 12 12 12 11 11 10 9 8 7 5 4 5 6 7 7 6 6 7 7 7 6 6 7 8 7 6 7 7 7 7 9 8
6 3 3 3 6 5 3 6 7 7 9 9 9 9 8 8 9 9 9 8 9 9 11 11 10 12 12 14 15 13 14 16 19 21 21 22 21 19 20 18 18 19 18 16 17 19 21 21 22 21 22 21 21 20 19 18 17 17 16 15 14 14 14 13 13 11 11 11 10 10 9 8 7 6 5 4 5 5 6 5 4 6 6 6 6 7 7 8 9 8 8 9 8 7 6 8 9
6 6 5 4 6 2 5 5 6 8 9 9 9 9 8 8 7 6 8 11 10 11 11 10 12 14 14 14 14 14 15 17 20 21 20 21 20 18 19 18 18 18 17 17 17 19 21 21 21 20 20 20 20 19 17 16 16 15 15 14 13 12 12 12 11 10 10 10 9 9 8 7 6 7 5 4 4 4 4 3 3 6 6 6 7 7 8 8 8 8 8 9 9 8 7 7 8
4 9 8 4 2 3 5 6 7 8 9 10 10 9 8 8 7 7 8 11 11 12 12 9 14 19 14 12 12 14 17 19 20 21 21 20 19 18 19 19 19 18 17 18 18 19 21 21 21 21 20 20 19 18 16 15 14 14 13 13 13 12 11 11 10 10 10 9 8 8 8 7 6 7 4 2 2 3 3 1 3 6 6 6 7 7 7 8 7 7 8 7 8 7 6 7 7
3 7 7 3 1 3 3 7 8 8 9 10 9 8 8 8 7 8 9 11 11 12 12 9 16 20 13 10 13 16 19 19 20 21 21 20 19 19 19 19 19 18 18 19 18 19 20 19 20 21 20 20 18 17 16 15 14 13 12 12 12 11 10 10 10 9 9 8 8 8 7 7 6 5 4 2 0 1 2 1 3 5 6 7 7 7 7 8 7 6 7 6 5 5 5 5 5
7 4 5 3 1 3 3 6 7 7 8 8 9 9 9 9 8 9 9 10 12 11 11 12 18 18 12 12 15 18 19 19 20 21 20 19 19 19 19 19 18 18 18 18 18 18 18 18 18 19 20 19 18 16 15 14 13 12 12 11 11 10 10 10 9 9 9 8 8 8 7 6 5 4 3 2 0 1 1 2 3 5 6 7 7 7 7 7 6 5 6 6 4 5 4 5 6
7 8 7 2 1 1 3 4 5 6 7 9 10 9 8 8 9 10 9 9 9 10 12 15 19 16 14 15 15 19 20 20 21 21 20 19 19 18 18 18 18 17 17 17 18 18 17 17 17 17 18 18 16 15 15 13 12 12 11 11 10 10 9 9 9 8 8 8 7 7 6 5 4 3 3 2 1 1 2 2 4 6 7 8 8 8 8 7 6 5 5 4 3 3 4 6 6
10 14 10 2 1 1 2 2 2 4 8 10 10 9 8 8 9 10 11 9 9 12 13 15 15 11 13 15 15 21 22 22 22 21 20 19 19 18 18 18 18 17 15 16 17 18 17 17 17 17 17 16 15 14 13 12 11 11 11 10 10 10 9 9 8 8 7 7 6 6 6 5 4 3 2 2 2 2 3 3 5 6 7 8 8 8 8 7 5 4 4 4 3 2 4 6 6
10 6 5 3 2 2 3 3 2 4 8 11 10 10 9 10 9 9 9 10 12 12 12 14 10 7 14 17 19 23 23 24 23 21 20 19 19 18 18 17 16 16 15 14 15 15 16 17 17 16 16 15 15 14 12 11 10 10 10 10 10 10 10 9 8 8 7 6 6 6 5 4 3 2 2 3 3 3 3 5 5 6 7 7 8 8 7 6 5 4 3 3 4 3 4 6 7
7 1 2 4 2 2 4 4 1 5 9 11 11 10 10 10 8 9 9 10 14 13 12 12 8 8 14 18 22 26 25 25 23 21 20 20 19 18 18 17 17 16 14 14 15 14 15 17 17 16 16 15 14 14 12 11 10 9 10 10 10 10 10 9 8 7 6 6 5 5 5 4 3 3 4 4 4 4 4 5 6 7 8 8 8 7 5 5 4 3 2 3 4 4 5 6 8
6 2 1 4 4 1 4 5 3 6 9 9 10 9 10 11 9 10 8 10 14 13 13 12 9 9 14 20 25 26 26 25 23 22 21 20 19 18 18 17 17 16 15 15 15 16 16 17 17 16 16 15 14 13 12 11 10 10 9 10 10 10 10 8 8 6 6 6 5 5 5 4 5 5 5 5 5 5 5 5 5 6 8 7 7 7 5 4 3 2 3 4 4 5 5 5 7
6 2 2 6 4 2 4 5 4 6 9 10 9 9 9 10 11 11 9 11 14 11 13 14 12 13 16 23 27 27 27 25 24 23 21 20 19 19 18 17 17 16 16 16 16 16 16 16 16 16 16 15 13 12 12 11 11 11 10 10 10 10 9 7 7 6 6 7 7 6 5 5 6 5 6 6 5 5 5 5 5 6 7 6 6 7 6 5 3 3 4 5 5 4 5 6 6
9 5 3 7 3 2 3 5 5 7 9 11 9 8 9 10 11 10 9 12 12 10 12 15 14 16 20 25 27 27 27 25 24 22 21 20 18 18 17 17 16 16 16 16 16 15 15 17 17 17 15 14 13 12 12 12 12 11 10 10 10 9 9 8 8 8 8 8 7 6 6 6 6 6 5 5 5 5 5 4 4 6 6 6 6 6 6 5 5 5 5 6 5 4 5 5 5
9 8 6 7 3 1 3 4 6 9 9 10 10 8 9 11 10 10 10 10 9 10 13 15 17 19 22 26 27 28 27 26 24 22 22 20 19 18 16 17 16 16 15 15 16 14 15 17 16 16 15 14 14 13 12 12 12 11 11 10 10 10 9 9 9 9 9 9 8 6 6 6 7 6 5 6 6 5 4 4 5 5 5 5 6 5 4 4 5 6 6 6 6 5 5 6 7
6 7 11 8 3 1 3 3 6 9 9 10 10 8 9 11 10 9 10 7 6 10 14 15 18 21 24 26 27 28 27 27 25 23 22 20 20 18 16 17 15 16 15 14 16 15 16 16 15 16 15 15 15 13 12 12 12 11 10 10 10 10 10 10 10 9 9 9 8 7 6 7 6 6 6 7 6 6 6 6 6 5 4 4 5 4 3 3 4 5 5 5 5 5 6 8 10
6 4 10 8 1 3 2 3 5 7 9 11 10 9 11 10 9 10 10 5 3 10 15 16 19 22 24 25 26 27 27 26 25 23 23 21 21 19 17 18 16 17 16 15 15 16 17 16 16 15 15 17 15 13 13 12 13 12 11 11 11 10 10 10 10 9 9 10 10 9 8 7 7 7 7 7 7 7 7 6 6 6 5 4 4 3 3 2 2 3 4 4 5 6 7 8 9
9 5 7 7 4 6 5 2 4 7 8 10 10 10 12 10 9 10 11 7 4 8 15 17 19 23 24 26 26 27 27 26 25 24 22 22 21 19 18 18 17 17 16 15 15 16 17 17 17 16 15 17 15 14 13 12 13 12 11 12 12 11 11 10 10 9 9 11 11 11 10 8 8 8 8 7 7 8 7 7 9 8 6 4 4 3 3 3 2 3 4 5 6 7 8 8 9
10 7 7 7 7 10 9 5 5 8 8 9 12 12 11 10 9 10 11 10 7 9 15 18 21 23 24 25 26 27 27 26 25 24 23 22 21 20 18 18 17 17 17 16 16 16 17 17 18 18 16 17 17 16 14 12 12 12 11 12 12 13 12 9 9 9 10 10 10 12 12 10 8 8 9 9 9 8 8 10 10 9 8 6 5 4 3 4 4 3 4 5 6 7 8 9 10
10 9 10 9 10 13 8 4 5 9 10 11 12 12 11 11 9 10 11 11 10 13 16 19 22 24 24 25 26 26 27 26 25 25 24 22 22 22 19 19 18 18 18 18 16 16 17 17 18 19 18 18 18 16 14 13 12 13 13 12 12 14 12 10 10 10 9 9 10 12 13 12 10 11 12 12 12 11 9 10 10 9 10 9 8 6 4 5 5 4 5 6 7 9 9 10 11
10 12 12 12 13 12 5 4 6 9 11 13 13 11 12 13 9 8 12 11 12 16 17 19 22 23 24 24 25 26 26 26 25 25 24 23 23 23 21 20 19 19 18 19 18 17 18 18 18 19 20 20 19 16 15 15 14 14 14 12 12 13 14 13 12 11 11 11 11 12 14 14 12 13 14 13 13 12 8 9 9 9 10 10 10 9 5 5 5 5 6 8 8 9 10 10 10
9 11 12 14 15 10 6 6 8 10 10 13 13 11 12 13 8 7 15 14 13 18 18 19 21 22 22 22 24 25 25 25 24 25 25 25 24 24 23 21 20 19 19 19 19 18 18 19 19 19 20 20 20 17 16 17 15 13 13 12 12 13 14 14 13 13 13 13 13 13 14 14 13 14 13 12 12 11 8 9 10 9 10 10 9 9 7 6 7 7 8 9 9 9 9 9 9
12 10 11 12 13 9 9 8 10 10 9 13 14 10 11 12 8 9 18 16 15 18 18 20 20 21 22 22 23 24 24 24 24 25 25 25 23 23 24 22 21 20 20 20 20 19 19 20 20 20 21 21 21 19 18 18 16 14 14 13 13 13 13 13 13 13 14 14 15 15 15 14 14 14 13 12 12 11 9 10 11 9 10 11 9 9 9 9 10 9 8 8 9 9 9 9 9
14 12 10 8 10 8 9 9 11 11 10 15 14 8 8 11 10 11 19 18 18 19 19 20 20 21 22 22 23 23 24 25 25 25 25 25 24 23 24 23 23 21 20 20 21 21 20 20 20 21 22 22 21 21 20 18 17 16 15 14 14 15 14 14 14 14 14 14 15 16 15 14 14 14 14 12 12 11 10 11 11 9 10 12 10 10 10 9 10 10 7 7 8 9 8 9 8
12 12 10 7 8 7 11 11 12 12 11 16 13 6 7 11 14 15 19 20 19 19 20 20 20 21 22 22 23 23 24 25 25 25 25 25 24 23 24 24 24 23 21 21 22 22 21 21 21 21 22 22 21 22 21 19 17 16 15 14 15 15 15 14 14 14 13 13 14 15 15 14 13 13 13 11 11 11 11 10 10 11 12 12 12 12 11 8 10 9 6 7 8 7 7 9 9
9 10 9 9 8 6 11 13 13 12 12 16 13 5 5 10 16 19 19 19 20 19 20 21 20 21 22 23 23 23 23 24 24 25 25 25 25 23 24 24 25 24 23 21 22 23 22 22 21 21 21 21 20 22 22 20 19 18 16 15 15 15 15 15 15 13 12 12 12 13 15 14 11 12 12 11 12 11 11 11 10 13 13 12 12 12 9 7 8 8 6 6 7 7 7 8 8
10 10 9 9 9 7 8 11 14 14 12 15 14 6 3 7 16 20 19 19 20 19 20 21 21 22 22 22 23 23 23 24 25 26 26 26 26 25 24 25 25 25 23 22 22 23 23 23 23 22 21 20 21 21 22 21 21 20 19 17 17 16 16 15 14 15 14 13 13 13 14 13 12 12 12 13 13 12 12 11 11 14 13 12 13 11 8 8 8 7 7 6 6 8 8 7 8
9 11 9 9 11 10 9 9 14 15 12 13 15 9 5 6 15 19 18 19 20 19 20 22 21 21 22 22 23 23 24 25 27 28 28 28 27 26 25 25 26 25 24 23 22 23 23 24 25 24 23 21 21 21 21 22 22 22 21 20 19 18 18 16 15 16 15 14 15 15 15 13 12 12 12 13 13 13 13 12 14 15 14 13 14 12 11 12 8 5 7 8 11 13 10 8 8
12 12 8 9 13 13 12 11 14 16 13 13 15 12 8 8 12 15 16 18 20 19 19 21 22 22 22 23 23 24 24 26 28 28 28 28 27 26 25 25 26 26 25 25 24 23 24 24 26 27 25 23 21 21 20 21 22 23 22 20 20 20 19 19 18 17 17 16 16 16 15 14 13 13 13 14 13 13 13 13 15 14 15 16 15 14 13 11 7 5 7 11 15 14 10 8 7
15 12 10 10 12 11 11 12 14 16 14 14 14 12 10 11 12 12 14 16 18 19 19 19 21 22 23 23 23 24 25 26 27 28 28 28 28 27 26 25 26 26 26 26 26 25 25 25 25 27 28 25 23 22 21 22 22 23 22 21 21 21 19 19 20 19 18 18 17 17 17 15 14 14 14 14 14 13 12 13 14 13 14 17 15 12 9 7 8 8 9 13 13 9 6 6 4
17 12 13 14 12 10 11 12 15 16 13 13 13 12 13 13 14 12 13 16 16 18 19 20 21 22 23 24 24 25 25 25 25 27 28 29 28 27 26 25 25 26 26 26 27 27 26 25 25 27 28 27 25 24 23 23 23 22 22 21 21 19 17 18 20 19 17 17 17 18 17 16 15 15 15 16 15 15 15 16 16 16 16 16 13 9 7 7 9 8 9 12 8 4 4 4 3
19 14 13 13 12 11 13 14 17 16 12 11 12 13 14 14 13 13 12 13 15 17 19 20 22 22 23 24 25 25 25 24 24 26 28 29 29 28 28 26 26 28 28 27 27 27 27 26 26 28 29 29 28 26 24 22 21 22 21 21 20 18 16 17 18 17 16 16 17 17 16 15 15 15 16 16 17 17 17 16 15 15 14 11 9 7 7 8 7 6 8 8 5 3 4 3 3
18 13 12 11 11 11 13 13 17 15 9 9 13 13 13 14 13 13 11 12 14 17 19 20 21 22 23 24 25 25 25 25 26 27 29 30 30 29 29 28 28 28 28 27 27 27 27 27 27 29 29 29 29 29 25 21 21 21 20 18 17 16 15 15 14 14 15 15 15 15 14 15 15 14 15 15 15 15 14 12 10 9 8 7 6 6 6 6 6 6 6 5 4 4 4 3 3
15 14 12 10 12 13 10 7 12 13 9 9 12 12 11 13 13 13 14 16 17 19 20 20 22 22 22 23 25 26 27 27 27 28 30 31 31 31 31 30 29 29 29 29 29 29 29 30 30 30 30 29 28 28 27 23 21 20 20 18 16 14 13 14 14 15 15 14 13 13 13 14 14 14 14 12 11 10 9 8 5 5 6 6 7 7 6 5 6 6 4 3 4 4 4 3 3
16 18 14 11 14 16 12 8 10 11 11 10 11 9 8 12 13 13 16 19 20 20 20 20 21 22 22 24 25 27 28 28 28 29 31 32 33 33 32 31 30 30 30 30 30 30 30 30 31 31 30 29 28 27 26 24 23 20 19 19 16 15 14 14 14 14 13 13 12 12 14 13 12 13 12 9 8 7 6 5 5 5 5 7 7 6 5 5 5 5 4 4 3 3 3 4 4
16 19 18 17 17 18 16 13 12 10 10 13 13 10 7 12 14 13 14 17 18 18 17 18 20 21 22 24 25 27 29 30 30 30 31 32 33 34 33 32 31 30 30 30 30 30 29 29 31 32 31 30 28 27 26 25 25 22 19 19 17 16 15 15 15 14 12 11 10 10 12 10 9 10 9 8 7 7 7 6 6 6 5 7 7 4 4 4 4 3 4 4 4 4 3 3 4
13 16 20 22 20 18 17 15 12 9 9 12 15 11 7 10 14 15 14 15 16 16 15 18 20 20 21 22 24 27 29 30 31 31 32 33 34 34 35 34 33 31 30 29 28 29 29 29 31 32 32 31 29 28 27 26 26 23 21 20 19 17 15 14 14 12 10 10 9 9 10 8 7 7 7 8 7 7 7 7 7 5 4 6 6 4 3 4 4 3 3 4 4 5 3 2 4
11 16 21 23 22 20 19 16 12 9 9 11 15 13 9 8 11 15 17 16 16 17 17 17 19 21 22 22 23 26 28 30 31 32 34 34 34 35 36 35 34 32 30 29 29 29 29 30 30 31 32 30 29 28 28 28 26 24 22 21 20 18 15 12 11 10 9 10 12 10 8 6 7 7 7 7 7 7 7 7 7 4 2 5 5 4 4 3 4 4 3 4 4 4 3 3 4
14 17 19 20 21 22 20 16 12 11 10 10 14 15 11 9 10 13 16 17 17 18 18 17 18 22 24 24 24 26 28 31 32 33 34 34 34 35 36 35 34 32 30 30 30 29 29 30 30 30 31 30 29 29 29 29 27 25 22 20 20 19 16 13 12 10 10 12 12 10 8 7 6 7 8 7 7 6 6 6 6 3 3 4 3 3 4 3 5 5 4 4 4 3 4 4 4
16 18 18 17 18 20 19 16 12 11 12 12 15 17 12 9 10 11 13 14 16 16 16 16 19 23 24 25 26 27 30 33 33 33 34 34 34 34 34 34 34 33 32 31 30 30 29 30 30 31 31 31 30 30 29 28 27 25 22 20 21 21 18 15 13 12 11 13 12 10 10 9 7 6 7 8 8 7 7 6 3 4 4 3 3 3 3 5 5 4 3 3 2 2 3 3 3
18 17 17 18 16 14 14 13 11 11 12 15 18 19 15 11 9 11 13 13 13 13 13 14 17 23 26 26 27 30 35 36 34 34 33 33 32 32 33 34 34 34 33 31 31 30 29 30 30 31 32 32 30 29 28 27 26 27 25 22 22 22 19 16 14 13 14 14 13 10 10 10 8 6 5 7 9 9 8 5 3 5 5 4 5 4 3 4 4 3 3 4 4 3 2 2 2
19 15 15 15 12 10 11 11 12 12 12 14 19 21 20 13 10 11 14 16 17 15 14 15 17 23 27 28 29 34 37 34 31 32 32 33 32 32 33 34 35 35 34 33 33 32 30 30 30 31 32 32 31 30 29 29 28 28 27 25 24 22 19 17 15 15 15 15 13 11 11 11 10 8 7 7 8 6 6 4 4 6 6 5 5 3 4 5 4 3 4 3 2 3 3 3 2
19 15 13 14 11 10 11 11 12 13 13 15 17 19 18 14 12 14 14 16 19 17 15 17 22 27 30 32 30 30 31 30 29 30 31 33 34 35 36 36 36 37 37 36 34 33 32 31 31 32 33 33 32 31 30 30 30 29 28 27 25 23 20 19 18 17 16 15 13 13 12 12 11 9 9 8 6 5 5 5 5 6 6 7 7 6 7 7 6 4 3 3 2 3 3 3 3
18 15 14 14 12 11 12 12 12 13 13 16 18 15 13 12 12 16 17 17 17 17 21 25 28 28 26 33 34 30 28 29 31 33 33 35 36 37 37 38 38 38 38 38 36 35 33 33 33 33 33 34 33 31 29 29 30 30 29 28 27 24 22 21 21 18 16 15 14 14 12 11 10 9 8 8 7 8 8 7 6 7 7 7 8 8 8 8 8 6 4 4 4 3 4 4 4
17 17 16 16 13 11 12 11 11 12 11 15 18 14 11 10 10 15 18 18 19 19 23 26 28 26 22 25 31 31 28 27 30 33 35 38 39 39 39 39 39 40 39 39 38 37 35 34 34 34 33 34 34 32 30 29 29 29 29 29 28 26 24 23 22 19 18 16 15 14 12 10 8 7 7 7 7 8 8 7 7 8 8 8 9 9 8 7 7 7 6 6 5 5 6 6 7
15 16 15 15 13 12 11 11 13 13 11 12 13 11 10 10 11 12 13 15 20 22 21 22 24 25 23 20 20 25 26 26 29 33 37 40 40 39 39 39 40 40 40 40 39 39 37 35 35 35 34 34 34 34 32 30 30 29 29 29 28 27 26 25 23 21 20 17 15 14 13 11 8 7 6 6 7 7 7 8 9 9 9 9 8 8 8 8 7 7 7 6 6 7 8 9 9
11 14 16 16 17 16 12 12 14 14 13 11 11 11 11 12 13 13 14 16 16 17 19 20 23 25 24 19 15 20 25 26 31 35 38 39 39 40 40 40 40 40 41 41 41 41 40 37 36 36 36 34 33 34 34 32 31 30 29 29 29 29 29 28 26 24 21 17 16 15 13 11 8 7 6 6 7 7 8 9 10 10 10 9 9 9 8 9 9 9 8 7 8 8 8 11 11
11 12 16 17 18 17 12 11 12 12 13 10 13 17 14 12 11 11 17 20 16 15 18 18 20 23 21 17 15 18 23 25 29 34 36 37 39 40 40 40 40 41 41 42 42 41 40 39 36 36 37 36 34 34 34 33 32 32 30 29 30 31 31 29 27 24 22 19 17 16 13 10 9 8 7 6 6 7 8 9 9 10 10 10 10 10 10 10 11 11 11 10 11 9 9 11 12
20 13 15 16 16 15 12 11 12 12 13 10 15 19 14 12 10 9 15 20 18 19 19 17 16 18 19 19 20 22 23 23 25 31 34 36 39 41 40 40 39 40 40 40 40 40 39 39 37 35 36 36 34 33 32 32 32 32 31 30 32 32 32 31 28 24 22 20 18 16 14 11 11 10 7 4 4 6 7 7 8 9 11 11 11 12 12 12 12 12 12 12 12 11 11 11 11
23 18 15 13 13 13 12 12 11 12 13 11 14 15 11 12 10 11 15 18 19 20 18 16 16 20 23 23 22 22 22 22 25 30 35 37 39 41 41 41 39 39 38 38 39 39 38 38 38 36 34 34 34 33 31 31 32 32 31 31 32 33 33 32 29 25 22 20 19 18 15 13 13 11 8 7 8 9 9 9 10 11 12 13 15 14 13 13 14 14 14 13 12 11 11 12 12
18 18 16 14 12 12 14 15 13 12 12 10 12 12 11 10 9 12 16 16 16 18 17 15 15 22 25 20 19 18 19 20 24 29 34 37 38 39 40 40 38 37 38 38 38 39 38 37 37 38 35 34 34 34 32 30 31 32 32 32 31 33 34 32 29 27 24 23 22 21 19 18 17 15 13 14 17 19 19 17 15 14 15 16 18 16 13 13 15 15 15 15 14 13 13 13 14
16 16 17 16 13 13 15 15 13 14 14 11 11 11 10 9 10 12 15 14 12 15 17 16 20 27 25 18 20 20 22 24 26 28 33 35 36 37 37 37 37 37 38 38 38 38 38 37 37 37 37 35 33 33 32 31 31 32 33 33 31 32 34 32 29 28 27 27 26 26 25 23 21 20 20 23 27 29 29 26 22 20 19 19 20 18 15 14 15 16 16 16 14 14 14 14 15
Wind_Direction
257 358 67 119 164 199 207 210 243 191 203 32 84 93 88 83 101 105 100 105 96 80 72 83 81 72 98 104 99 98 68 73 88 100 114 118 135 136 134 141 138 128 125 124 124 119 120 128 130 131 133 135 137 135 136 137 136 134 135 135 137 138 142 142 142 144 143 141 137 131 123 115 111 105 100 94 92 89 84 77 70 66 63 62 60 56 50 47 47 46 46 43 42 41 39 34 31
251 50 151 163 201 222 218 200 241 174 127 38 32 95 106 104 95 94 94 98 87 85 86 89 101 109 111 105 114 113 74 71 90 96 109 124 131 131 135 136 134 131 123 124 126 123 125 130 131 132 133 133 133 134 137 138 135 135 136 135 137 139 142 144 144 144 143 145 142 138 127 117 112 107 103 98 95 90 84 74 67 66 62 58 54 48 38 36 39 35 36 36 39 39 36 34 30
185 162 182 201 216 230 264 227 244 156 100 87 158 85 94 102 93 93 96 97 97 97 95 100 108 106 100 99 108 109 91 90 102 107 117 129 130 133 137 136 137 133 125 125 129 128 129 132 134 135 136 133 130 134 137 139 138 138 139 139 140 140 142 142 144 144 143 144 143 142 134 126 117 112 108 102 98 95 88 77 66 60 55 50 46 42 33 29 34 27 24 25 31 35 29 33 33
171 181 193 215 230 225 262 242 243 25 80 101 103 94 96 92 95 96 98 103 109 108 98 102 90 82 98 107 102 96 96 99 106 114 124 136 136 138 138 138 139 135 129 121 124 132 132 134 135 135 137 134 132 134 137 138 139 142 142 143 144 144 142 140 141 142 142 143 143 142 138 133 124 118 112 109 111 103 86 71 56 52 49 46 40 37 33 30 37 30 20 18 22 28 23 31 33
182 200 202 232 263 269 266 248 215 54 63 94 92 103 110 100 105 104 107 115 117 112 105 110 93 84 86 86 97 98 102 106 111 114 122 134 136 138 140 135 132 132 130 121 128 137 134 135 137 139 141 138 135 136 138 139 140 142 144 144 145 147 143 140 140 139 142 143 143 142 139 136 131 124 117 121 122 99 77 63 51 48 45 44 36 29 32 32 37 31 19 14 15 15 13 26 31
195 203 203 247 261 285 283 263 93 69 58 93 101 97 110 110 113 114 117 115 108 114 116 119 112 99 81 72 80 88 111 114 114 118 122 131 134 136 137 132 130 129 129 129 137 140 139 140 142 145 146 142 139 139 142 140 141 143 145 146 146 148 145 142 141 140 142 143 143 142 140 138 135 128 125 135 123 92 71 57 50 49 46 42 33 26 28 29 31 29 17 9 13 8 1 11 25
213 211 201 242 250 252 266 278 74 76 65 89 110 105 113 114 119 122 123 117 111 119 114 119 123 111 98 98 85 77 106 118 116 123 127 133 137 133 131 133 133 130 130 134 138 143 147 145 144 146 145 143 142 144 146 144 143 145 147 148 148 149 149 148 147 146 144 144 144 144 144 142 141 134 137 149 119 87 69 60 58 59 49 36 31 26 21 19 18 20 20 13 16 12 358 357 11
225 240 220 251 258 228 229 57 64 73 73 86 101 102 108 119 132 131 131 130 121 124 123 130 131 110 102 108 100 85 98 114 119 125 130 134 137 135 134 137 135 133 135 138 140 147 152 148 146 146 146 147 147 147 147 147 146 146 147 148 149 150 154 155 154 153 150 150 149 149 150 149 151 143 152 160 112 87 72 67 68 64 45 31 26 19 14 13 12 11 21 22 16 13 358 347 356
219 221 223 261 263 227 146 84 84 85 87 96 99 101 110 125 138 136 135 122 117 131 133 137 130 112 109 108 108 107 104 114 122 126 132 134 138 138 136 136 132 134 138 140 141 146 152 152 150 149 150 150 150 148 146 147 146 145 146 148 149 151 156 157 155 155 153 155 154 154 154 154 158 147 160 164 113 95 79 72 65 50 31 18 11 7 11 11 9 5 13 16 7 4 356 349 353
237 238 236 248 255 165 102 93 97 92 95 103 107 119 125 128 136 141 129 116 126 131 126 134 127 115 113 111 110 118 122 125 127 129 134 135 138 137 135 136 133 134 135 137 141 147 153 153 152 152 152 152 151 149 147 147 146 145 147 149 151 155 155 150 149 151 151 154 153 152 150 146 149 147 158 162 120 97 81 73 49 32 17 4 360 0 5 5 6 5 11 8 358 357 354 359 358
283 266 255 252 263 84 95 98 102 99 102 106 109 124 126 127 137 140 126 122 129 124 127 139 128 122 115 103 102 117 130 133 133 134 137 137 137 136 136 138 138 136 133 136 143 150 154 155 154 152 152 154 154 151 150 151 150 149 151 153 153 157 154 146 149 149 149 151 148 145 137 130 141 152 157 157 128 102 89 58 25 20 7 356 356 356 355 355 1 8 13 1 350 353 348 358 1
250 262 253 245 74 65 89 99 102 105 115 118 117 126 124 126 135 135 133 128 124 124 139 148 132 132 124 107 114 128 136 138 138 138 139 139 138 139 138 138 140 137 135 139 143 149 153 156 155 153 155 157 156 155 156 157 157 157 156 155 155 158 154 150 153 149 148 148 143 139 134 136 148 154 146 147 173 86 79 3 15 10 351 345 347 350 343 344 354 5 10 359 346 348 341 358 13
231 234 244 267 28 59 92 97 109 127 124 115 114 126 131 132 134 133 132 127 131 131 131 139 135 129 122 121 129 139 142 143 142 141 140 139 140 141 140 139 140 138 139 141 143 147 151 152 154 156 159 158 158 159 161 163 163 161 159 158 159 160 156 154 155 152 151 148 144 143 144 148 151 146 143 152 257 334 340 337 341 340 339 339 341 342 335 337 346 355 4 1 348 345 353 23 29
271 276 260 269 321 16 93 110 142 144 111 106 116 132 138 125 125 131 132 132 132 121 117 135 134 120 122 130 139 148 148 147 145 144 142 141 141 142 141 140 140 140 141 143 144 147 149 151 155 159 160 159 160 163 164 166 166 166 166 165 161 160 163 160 155 153 150 149 147 145 147 149 152 155 162 172 203 254 291 320 322 326 336 337 337 334 332 337 338 335 348 356 10 356 5 32 35
254 269 272 255 209 188 99 89 129 114 106 118 126 135 124 104 122 136 142 141 112 110 124 139 137 131 144 148 151 154 151 150 149 146 143 142 142 142 143 143 144 144 144 146 145 147 150 152 154 157 159 159 160 164 166 169 172 172 171 169 165 165 169 164 158 158 154 153 154 152 155 159 169 179 186 208 226 246 280 303 310 323 331 330 329 328 329 335 339 338 336 354 40 18 357 26 43
236 254 288 268 202 179 135 80 49 97 114 121 132 145 123 110 134 132 134 135 116 126 142 140 137 146 156 154 151 151 150 150 150 147 145 144 144 146 146 146 147 147 149 150 149 149 151 152 153 155 157 158 162 163 166 173 177 178 175 171 172 172 169 166 164 165 160 161 167 168 173 179 187 204 220 225 242 256 273 294 304 317 323 320 321 326 328 331 340 353 346 5 36 28 15 36 45
256 261 304 273 235 186 129 114 83 95 108 121 143 155 130 125 134 111 114 131 131 145 147 133 126 137 150 150 147 148 149 150 150 149 148 147 148 151 151 150 150 152 155 155 153 151 152 155 155 158 160 160 164 165 166 171 179 183 179 176 179 177 170 168 168 168 168 176 185 184 187 195 203 215 231 231 245 259 265 286 301 313 316 315 322 330 334 335 338 353 14 19 31 31 26 35 37
245 242 204 272 263 190 109 118 96 99 115 130 151 156 135 136 135 124 138 141 140 149 143 135 126 128 139 142 144 147 149 150 152 152 152 153 153 156 158 157 155 156 159 157 156 155 158 160 158 161 166 168 169 168 167 170 178 182 181 180 183 183 176 171 172 174 179 192 201 195 191 204 218 220 231 238 244 260 272 284 299 311 310 312 325 332 334 340 337 353 28 21 21 28 22 21 18
209 180 197 241 239 96 120 138 111 118 131 134 153 157 138 138 138 148 166 146 146 154 147 147 137 129 135 141 146 149 150 153 154 156 156 157 159 159 161 161 161 160 160 161 160 163 164 161 163 167 171 175 172 170 172 175 177 178 182 181 183 187 184 180 183 187 193 206 209 199 200 214 228 230 235 245 256 272 279 286 302 312 309 306 318 328 326 320 315 333 359 356 352 6 19 21 3
192 163 250 242 175 95 157 152 127 125 135 140 152 156 139 140 145 161 168 144 155 167 153 158 150 143 146 147 150 152 153 156 157 160 160 161 162 161 162 162 164 164 162 164 162 168 173 167 170 173 174 175 171 174 179 181 180 178 181 181 184 190 190 192 195 198 201 211 213 205 211 221 229 235 242 252 254 261 273 282 294 306 304 294 301 318 319 307 308 317 318 333 344 348 2 6 347
194 162 232 243 120 112 157 150 156 131 137 146 147 160 146 144 155 165 164 150 166 173 161 167 159 153 155 152 155 158 157 159 161 163 164 165 165 163 165 165 166 166 165 166 165 172 179 172 174 175 175 177 177 181 182 182 182 179 184 182 183 189 194 199 202 208 209 213 216 211 221 232 233 234 248 257 252 257 274 270 269 289 298 292 301 315 325 325 325 325 321 331 350 356 349 332 326
231 180 226 244 93 144 132 144 179 140 142 148 150 167 145 147 166 165 168 172 176 170 166 167 162 159 159 156 158 162 161 162 165 166 167 168 168 166 167 166 167 169 168 170 171 176 178 176 181 182 181 185 187 187 183 184 183 179 188 188 185 190 198 200 203 211 216 219 217 210 223 239 241 240 246 254 263 274 279 276 277 288 285 284 304 313 326 342 327 326 333 334 337 341 330 317 321
243 214 231 259 337 238 190 145 171 155 161 154 158 164 144 159 173 165 172 179 149 155 159 159 158 161 161 160 161 165 165 165 167 169 170 171 171 170 169 170 170 172 173 174 175 180 181 180 185 187 189 189 188 189 185 187 188 182 190 195 190 194 199 200 203 208 219 229 222 209 215 231 243 251 252 256 264 265 273 281 275 270 257 264 281 282 287 299 295 297 305 310 313 318 316 314 317
223 243 227 241 245 238 243 209 156 175 182 156 166 167 155 173 169 168 175 159 133 141 148 151 154 160 163 162 164 168 168 169 171 172 174 174 174 175 173 173 173 174 177 178 177 183 187 186 186 185 192 191 185 190 188 188 191 185 194 201 195 199 201 203 208 207 216 230 230 218 216 224 235 247 254 257 260 261 270 270 263 263 261 258 255 259 266 262 269 280 289 300 307 312 313 314 313
209 243 238 218 225 235 238 229 162 178 187 161 176 172 162 179 162 173 177 148 153 151 145 151 153 160 165 166 167 170 171 173 174 174 176 177 178 178 177 176 177 178 180 181 181 186 188 190 192 188 192 196 191 194 191 191 196 191 200 206 202 207 206 205 214 214 216 227 235 231 225 224 232 243 243 239 242 250 258 261 265 270 272 275 272 271 259 259 269 278 290 293 299 307 310 312 311
194 218 243 226 227 237 235 231 184 181 186 175 183 173 166 176 158 175 175 144 159 161 149 152 156 162 167 168 170 171 173 176 176 176 177 179 181 182 182 180 181 183 183 183 184 187 189 191 197 195 194 197 195 197 196 197 202 200 204 209 212 216 211 208 215 219 222 225 233 241 239 230 228 236 237 235 241 247 253 265 276 278 278 284 287 283 265 273 280 268 275 288 300 310 312 313 314
200 200 231 237 241 245 245 257 199 182 188 185 186 176 171 174 170 181 161 146 163 159 151 155 159 165 168 169 171 172 176 178 177 178 179 180 183 184 185 185 185 186 185 186 187 189 192 193 198 200 199 199 196 197 202 204 206 206 209 211 220 225 222 220 222 223 225 226 225 235 245 242 235 237 240 242 250 258 261 269 275 277 280 283 284 283 275 279 282 273 280 295 307 311 313 315 320
231 205 217 225 239 241 239 248 187 179 190 185 188 180 174 172 188 187 152 152 166 160 158 160 163 167 169 170 170 174 178 180 179 180 182 183 186 187 188 188 187 189 189 191 191 191 194 195 198 201 201 203 200 197 205 210 207 210 214 213 220 229 230 228 230 231 232 233 226 227 242 250 245 242 249 250 253 263 264 267 272 279 285 283 283 285 289 293 288 285 288 301 312 313 320 322 324
247 232 227 217 228 226 228 230 176 181 182 180 193 186 178 177 198 184 154 158 166 166 165 164 169 170 171 173 171 176 180 182 184 185 186 186 187 189 190 191 189 190 192 194 193 194 197 197 200 202 203 206 204 200 206 212 211 213 218 216 220 229 232 230 229 234 238 238 235 237 244 249 250 246 250 254 255 261 258 263 273 282 284 281 280 283 298 308 299 291 289 304 317 320 331 328 327
236 236 241 230 233 215 211 211 175 180 172 182 201 195 184 187 203 184 158 164 169 170 169 169 176 173 174 177 175 179 182 184 187 187 189 188 189 191 193 195 192 192 193 196 196 196 198 199 201 203 205 208 206 205 207 212 213 215 219 218 222 228 231 233 231 233 239 239 240 246 246 246 253 249 246 250 252 255 256 264 273 275 274 281 287 283 293 303 297 296 297 307 318 325 331 326 331
232 231 231 226 244 211 188 190 178 177 168 185 201 210 204 189 195 184 163 170 174 172 173 175 179 176 178 180 179 182 184 187 188 188 191 190 191 192 193 195 194 195 195 197 199 199 200 201 203 204 207 209 208 209 210 212 214 215 219 221 226 231 231 234 236 237 240 243 245 250 252 248 247 246 245 251 253 252 256 264 273 273 270 280 284 280 288 293 290 297 302 309 320 326 328 330 335
225 230 228 208 230 222 177 173 186 186 167 184 200 216 213 180 180 177 169 177 178 177 178 178 181 180 180 181 183 184 184 188 189 191 192 192 193 193 194 195 195 198 197 198 201 202 203 203 204 204 207 209 208 212 214 214 216 217 219 220 226 233 234 235 238 238 236 241 244 246 256 258 248 246 247 250 255 258 261 262 264 270 274 279 277 279 290 286 286 294 293 304 314 317 328 334 330
213 222 232 208 208 216 180 169 192 194 166 185 205 220 235 173 165 167 174 182 181 182 181 181 184 182 181 183 185 186 186 188 191 194 193 193 194 194 195 196 196 198 198 199 201 205 207 206 206 204 206 209 208 212 216 217 218 222 224 223 225 229 235 236 238 240 236 237 239 240 252 258 248 244 249 252 255 259 264 265 262 267 275 274 274 285 294 288 293 299 297 305 308 315 328 322 315
210 213 226 224 212 200 187 183 195 193 171 189 208 214 224 169 153 163 179 186 185 188 186 183 187 186 183 185 188 189 188 189 193 195 194 193 194 194 194 195 196 197 198 200 201 205 207 208 211 208 206 209 212 214 218 220 221 226 229 230 229 230 234 236 237 242 242 240 242 244 250 252 245 243 250 255 256 258 259 260 262 268 274 275 283 297 293 286 290 291 298 308 311 316 315 301 298
217 209 207 230 225 204 190 183 188 189 180 192 207 208 205 166 150 166 182 190 191 193 192 188 188 190 187 188 191 192 191 193 195 195 194 193 193 193 194 194 195 196 198 200 201 203 205 207 212 213 207 206 213 217 219 221 222 226 231 233 233 233 236 238 238 240 244 243 243 247 250 249 248 250 253 255 256 257 257 260 265 269 274 280 294 299 288 287 297 295 304 315 317 318 312 299 288
230 214 204 223 230 219 202 178 174 188 193 198 202 208 207 174 163 177 184 195 202 198 197 194 191 192 190 191 194 194 195 197 196 194 194 193 193 193 193 194 195 196 198 200 200 202 205 207 208 213 212 206 209 215 217 219 221 224 228 230 231 233 235 236 239 244 247 248 247 251 253 252 252 254 255 256 257 259 263 270 271 269 273 283 292 288 280 294 299 296 315 324 323 323 317 306 283
239 225 214 220 227 230 216 179 164 184 207 208 199 209 216 189 177 188 187 194 206 205 201 200 196 195 194 195 197 196 197 198 196 194 194 193 193 193 193 193 194 196 198 199 201 203 205 206 206 211 214 211 209 212 216 218 218 221 223 225 229 233 234 233 240 245 245 245 249 253 254 252 253 255 255 255 259 268 274 273 274 274 274 283 287 277 280 303 304 308 328 330 327 328 320 306 288
241 238 226 220 225 229 219 193 169 181 209 212 204 212 219 208 191 185 186 195 208 210 206 205 202 198 197 198 199 199 197 198 195 193 193 194 193 193 193 193 194 196 198 200 201 203 204 205 206 210 214 214 213 213 216 217 218 219 220 223 227 231 232 234 241 246 244 242 245 249 250 251 253 255 256 258 265 272 275 273 278 278 271 278 287 285 302 317 318 319 323 325 322 313 310 297 287
239 242 237 225 224 229 229 207 171 171 201 210 210 216 217 215 194 174 186 204 213 213 210 209 208 204 200 198 200 201 198 198 196 192 192 193 193 193 193 194 196 196 198 200 201 202 204 206 208 211 213 214 215 216 217 217 219 220 219 222 226 227 229 234 238 241 242 242 244 245 245 247 253 259 260 262 266 269 271 272 277 274 269 283 289 290 311 319 309 305 311 319 311 300 297 276 262
235 237 234 228 226 225 227 201 162 167 198 217 220 220 220 217 194 176 192 205 212 216 211 208 210 210 206 202 201 202 200 199 197 193 192 193 194 194 195 195 196 197 197 199 200 201 204 207 208 210 212 214 215 217 218 217 219 220 219 220 223 226 226 226 230 235 239 242 245 247 246 246 254 261 261 260 261 264 269 275 275 266 270 285 291 302 315 306 294 295 294 286 284 298 306 292 284
231 234 232 227 229 227 217 187 176 188 202 219 235 233 225 221 206 192 195 200 207 212 209 206 207 210 210 208 205 203 202 201 199 195 193 193 194 195 196 197 196 197 198 199 200 201 203 206 209 211 212 214 215 216 217 216 217 219 219 220 222 227 226 221 227 236 242 246 246 248 252 253 253 249 246 249 253 259 270 275 272 270 277 285 294 305 302 289 287 282 273 271 280 288 289 299 315
226 230 234 235 230 227 224 206 194 207 208 209 225 237 228 217 215 212 203 198 200 203 206 205 203 208 212 212 210 205 204 203 200 197 195 194 196 196 196 197 197 198 199 199 200 201 203 205 209 213 214 215 216 217 219 218 218 220 220 219 221 225 227 228 235 240 244 248 244 244 251 249 243 235 230 236 241 250 260 260 263 270 282 291 291 280 281 303 306 289 284 293 291 277 261 286 301
224 221 227 237 240 232 231 226 211 218 220 203 212 232 237 218 216 218 212 202 197 198 211 211 202 204 212 215 216 212 207 205 202 198 196 196 198 197 197 197 198 200 199 198 200 201 203 206 209 212 214 214 216 216 217 220 220 221 220 222 225 226 226 232 239 236 230 235 228 227 243 239 226 220 216 228 235 243 252 253 261 270 289 296 293 287 314 328 309 299 298 285 260 262 267 260 275
229 218 216 224 238 241 238 238 225 220 226 212 213 228 242 232 223 221 215 209 203 203 212 213 203 203 210 214 219 221 214 208 203 199 198 198 199 199 198 198 199 200 200 198 199 200 203 206 209 211 213 214 215 214 215 219 220 219 221 222 223 223 224 228 230 222 212 221 221 213 224 224 210 210 210 220 232 238 243 247 251 257 286 288 285 308 340 335 305 303 290 287 274 269 270 236 248
227 228 228 220 226 238 244 248 237 218 227 228 216 220 233 237 232 230 224 217 211 206 206 207 208 208 208 208 216 228 226 216 206 201 200 200 200 200 199 198 199 199 200 200 200 200 202 205 206 210 212 212 212 213 215 218 218 217 218 218 218 218 221 221 221 218 211 216 221 212 213 215 209 217 217 216 226 230 234 240 251 270 289 283 286 322 331 300 283 286 286 311 329 304 276 249 251
225 231 243 239 227 226 230 241 244 228 229 237 225 218 228 237 230 230 231 226 219 209 200 204 212 212 209 207 210 223 232 224 211 203 201 201 200 201 200 199 199 200 200 201 200 200 201 204 205 209 211 211 212 213 214 215 216 216 215 214 216 216 218 220 218 213 210 215 219 216 222 223 214 222 225 225 226 225 235 237 250 287 287 276 260 250 278 285 283 278 262 269 259 248 277 274 268
225 227 235 240 237 234 231 232 243 243 230 228 226 224 230 238 228 222 225 226 225 216 204 206 215 215 211 207 204 213 226 225 214 204 200 200 201 200 200 200 199 200 200 200 200 201 201 203 205 207 211 213 212 210 209 209 214 219 218 215 215 215 216 217 211 207 210 217 215 211 221 224 215 210 209 226 231 229 241 235 208 257 263 249 245 231 238 275 287 276 243 241 231 217 249 266 255
222 224 227 233 235 243 247 233 228 239 237 226 223 222 227 235 230 226 224 222 222 218 211 208 216 219 210 202 201 209 218 220 213 207 200 196 198 198 198 200 199 199 199 200 200 200 201 202 203 205 209 212 209 206 206 206 211 217 219 216 214 214 213 208 206 208 212 217 212 202 212 220 215 206 199 217 234 229 231 225 208 231 239 230 233 226 226 233 231 244 244 241 238 214 210 221 232
215 218 220 225 223 222 234 232 225 232 237 234 228 223 227 236 231 228 228 226 221 210 208 215 222 222 204 193 200 208 213 212 208 210 205 196 195 196 197 198 198 198 198 199 200 200 201 201 202 204 206 209 209 207 208 208 210 214 216 215 214 213 209 203 205 209 211 215 212 203 207 216 213 207 206 207 206 203 216 230 225 222 228 229 220 213 223 220 204 209 229 229 234 242 228 222 231
208 209 213 219 219 217 222 225 228 231 230 234 238 236 237 239 231 228 227 232 231 205 201 218 231 234 209 187 191 199 207 208 202 205 208 200 195 194 195 196 196 198 198 198 199 199 200 200 201 203 204 207 209 206 205 206 208 211 214 215 214 212 209 206 206 206 205 207 210 205 199 206 212 209 207 199 189 201 218 231 233 228 230 231 222 217 220 220 212 203 208 220 227 247 249 236 242
209 209 216 223 219 220 225 220 223 231 231 231 234 234 237 235 227 227 221 226 237 220 205 213 224 237 231 200 187 187 200 207 199 203 208 203 197 193 194 195 195 196 196 197 198 198 200 200 200 201 202 204 206 203 201 202 204 207 210 213 213 212 210 209 208 208 205 202 205 204 193 193 203 200 198 197 196 206 214 223 230 232 233 233 232 230 220 220 228 216 210 214 216 236 247 241 240
211 208 216 222 214 219 236 236 229 233 237 232 229 231 237 240 236 230 218 216 229 229 222 220 217 221 230 222 193 180 191 202 198 202 208 204 198 193 192 194 194 195 195 196 198 197 198 199 200 201 201 202 203 203 201 201 202 203 205 210 212 212 212 210 209 211 209 203 202 201 197 196 195 191 193 192 196 204 208 219 227 228 230 229 230 230 216 213 228 229 223 219 218 231 245 249 247
203 205 217 218 213 221 236 241 235 235 239 232 232 238 233 235 237 228 227 228 226 227 230 230 226 221 218 218 206 186 188 197 199 202 208 204 198 194 193 193 193 194 195 196 197 197 196 198 199 201 201 201 201 203 203 203 203 203 204 209 212 213 214 212 210 211 208 202 202 203 202 200 194 191 192 187 193 204 210 220 227 225 225 222 222 227 220 212 219 225 224 225 229 231 242 255 261
212 204 215 216 218 225 229 237 232 231 240 233 230 239 234 230 227 210 225 232 220 223 234 232 230 229 218 203 207 209 203 205 205 204 206 204 199 196 194 193 194 194 194 195 195 196 196 197 199 200 201 201 201 202 203 204 204 204 203 206 212 215 216 215 211 209 207 200 200 203 199 191 192 197 196 190 196 209 221 230 226 220 222 224 221 225 228 224 222 223 221 224 230 229 235 251 265
231 226 213 210 217 218 215 229 229 226 238 234 231 239 240 241 226 200 230 236 218 217 226 222 219 223 218 200 201 215 215 213 210 204 204 203 199 198 196 194 195 195 195 194 194 195 196 198 199 200 202 202 202 202 202 204 205 206 204 205 211 216 216 216 212 206 204 200 200 201 193 184 195 204 204 213 231 234 236 234 224 220 223 226 223 222 227 230 229 228 226 227 230 230 234 243 254
229 237 224 215 220 216 212 223 227 230 236 234 233 236 238 243 225 206 232 237 224 219 216 215 216 217 215 203 200 206 201 206 214 207 203 202 199 198 197 195 194 194 194 193 193 195 197 198 199 200 202 202 202 202 202 203 204 206 205 204 209 214 216 217 213 204 200 200 200 197 188 187 202 208 215 243 261 262 250 233 223 221 221 222 225 228 230 230 231 233 231 231 232 232 238 243 245
212 226 224 216 214 216 221 222 220 228 235 232 234 234 232 239 222 209 227 232 221 214 210 210 219 231 229 210 200 196 179 194 218 214 205 201 199 200 197 196 194 191 192 192 194 196 197 199 200 201 201 201 202 202 201 202 203 204 206 206 207 213 216 215 211 206 203 200 200 199 194 196 205 209 220 241 252 254 249 239 229 226 226 225 227 234 238 231 232 237 236 236 235 234 236 239 242
208 214 221 222 216 214 222 223 216 222 231 234 239 240 234 236 231 218 223 231 218 206 209 203 207 227 232 209 200 191 173 188 212 217 213 202 197 199 197 195 193 191 193 193 194 196 196 199 201 200 202 203 202 202 202 203 203 203 207 207 206 210 214 213 210 209 208 206 209 210 207 207 212 218 230 243 248 249 247 241 236 234 234 229 229 236 240 233 233 236 237 239 241 241 242 241 242